Regional Weather Roundup
Issued by NWS Upton, NY

Current Version | Previous Version | Graphics & Text | Print | Product List | Glossary Off
Versions: 1 2 3 4 5 6 7 8 9 10 11 12 13 14 15 16 17 18 19 20 21 22 23 24 25 26 27 28 29 30 31 32 33 34 35 36 37 38 39 40 41 42 43 44 45 46 47 48 49 50

000
ASUS41 KOKX 271408
RWROKX

REGIONAL WEATHER ROUNDUP
NATIONAL WEATHER SERVICE NEW YORK NY
1000 AM EDT MON MAR 27 2017

NOTE: "FAIR" INDICATES FEW OR NO CLOUDS BELOW 12,000 FEET WITH NO
SIGNIFICANT WEATHER AND/OR OBSTRUCTIONS TO VISIBILITY.

NYZ071-072-176-178-NJZ106-104-271500-
NEW YORK CITY METRO AREA

CITY           SKY/WX    TMP DP  RH WIND       PRES   REMARKS
Central Park   CLOUDY    40  40 100 NE3       30.12F FOG
Wall St Helipt CLOUDY    43  41  93 NE6       30.12S
LaGuardia APRT LGT RAIN  41  39  93 NE7       30.10F FOG
Kennedy INTL   LGT RAIN  45  45 100 E3        30.11S VSB<1/4
Breezy Point     N/A     41 N/A N/A NE6         N/A
Newark/Liberty LGT RAIN  41  40  96 N7        30.11S FOG
Teterboro      LGT RAIN  41  40  96 N3        30.10F FOG
$$

NYZ177-179-078>081-271500-
LONG ISLAND NEW YORK

CITY           SKY/WX    TMP DP  RH WIND       PRES   REMARKS
Jones Beach      N/A     41 N/A N/A NE2         N/A
Matinecock PT    N/A     37 N/A N/A E12         N/A  WCI  30
Farmingdale    FOG       45  45 100 CALM      30.10S VSB 1/4
MacArthur/ISP  FOG       46  46 100 SE8       30.08F VSB 1/8
Shirley        LGT RAIN  46  46 100 SE10      30.10F VSB 1/2
Westhampton    FOG       47  45  93 SE12G18   30.11F VSB 1/4
East Hampton   FOG       45  45  99 SE7       30.10F VSB<1/4
Montauk        NOT AVBL
$$

NYZ052-065-067-271500-
HUDSON VALLEY

CITY           SKY/WX    TMP DP  RH WIND       PRES   REMARKS
White Plains   RAIN      39  38  96 E3        30.09F VSB 1
Newburgh       LGT RAIN  37  37 100 CALM      30.11S FOG
Montgomery     CLOUDY    38  36  92 CALM      30.09S
Poughkeepsie   CLOUDY    36  36 100 CALM      30.11S FOG
Albany         LGT RAIN  37  34  89 S8        30.09S FOG     WCI  31
$$

NJZ001-105-106-008-010-013-015-019>022-104-271500-
NEW JERSEY

CITY           SKY/WX    TMP DP  RH WIND       PRES   REMARKS
Newark/Liberty LGT RAIN  41  40  96 N7        30.11S FOG
Teterboro      LGT RAIN  41  40  96 N3        30.10F FOG
Caldwell       LGT RAIN  40  38  93 NE3       30.11S
Somerville     CLOUDY    41  39  93 MISG      30.09S
Linden         RAIN      41  41  99 CALM      30.11S
Sussex         CLOUDY    38  37  97 CALM      30.09F
Andover          N/A     38  37  97 CALM      30.09F
Trenton        LGT RAIN  42  42 100 N3        30.10R
Millville      CLOUDY    53  51  93 MISG      30.09R
Atlantic City  CLOUDY    56  51  84 SW10      30.08F
Wrightstown    DRIZZLE   46  46  98 SW3       30.07S
Toms River     CLOUDY    51  50  96 SW6       30.09S
Belmar         FOG       45  45 100 CALM      30.09F VSB 1/4
$$

PAZ047>061-062-071-271500-
EASTERN PENNSYLVANIA

CITY           SKY/WX    TMP DP  RH WIND       PRES   REMARKS
Philadelphia   LGT RAIN  45  44  97 CALM      30.10R FOG
Allentown      LGT RAIN  41  38  89 CALM      30.10S FOG
Scranton       CLOUDY    44  41  89 VRB5      30.03F
$$

CTZ002-004>006-009-010-012-RIZ004-006-007-MAZ004-011-015-271500-
SOUTHERN NEW ENGLAND
 IN CT

CITY           SKY/WX    TMP DP  RH WIND       PRES   REMARKS
Bradley INTL   RAIN      34  34 100 N9        30.13F FOG     WCI  27
Hartford       RAIN      36  35  96 N6        30.14R FOG     WCI  31
Danbury        RAIN      38  38 100 NE3       30.11S FOG
Wtrbury/Oxford LGT RAIN  36  32  87 E5        30.11S WCI  32
Bridgeport     HVY RAIN  40  38  93 NE13      30.12S VSB 3/4 WCI  32
Meriden        HVY RAIN  37  34  89 CALM      30.12F FOG
New Haven      FOG       41  40  96 E12G18    30.10F VSB 1/2
Chester        NOT AVBL
Groton         FOG       42  41  96 E8        30.12F VSB 1/2
Wilimantic     RAIN      41  39  93 NE3       30.12F VSB 3/4

 IN RI

CITY           SKY/WX    TMP DP  RH WIND       PRES   REMARKS
Providence     DRZL/FOG  40  39  97 E3        30.15F VSB 1
Block Island   LGT RAIN  43  43 100 SE13      30.13F VSB 1/4
Westerly       FOG       43  42  97 E13       30.13F VSB 1/4
 IN MA

CITY           SKY/WX    TMP DP  RH WIND       PRES   REMARKS
Boston         FOG       39  39 100 E8        30.17F VSB 1/2 WCI  33
Worcester      FOG       33  31  92 E6        30.11F VSB<1/4 WCI  28
Westfield      RAIN      34  33  96 N9        30.14S FOG     WCI  27
Provincetown   CLOUDY    44  39  82 SE16G25   30.16F
Nantucket      CLOUDY    44  40  85 SE17      30.17F
$$

ANZ330-335-338-340-345-350-353-355-271500-
COASTAL MARINE OBSERVATIONS


STATION/POSITION TIME  SKY/WX   TEMP    WIND        PRES    VSBY  WAVE
                                AIR SEA DIR/SP/G                  HT/PER
                 (UTC)          (F)     (DEG/KT/KT) (MB)    (MI)  (FT/S)
NY HARB ENTRANCE 1250            43 42  110/  6/  6 1019.3          4/ 8
20 S FIRE ISLAND 1250            44 40  150/  8/ 10 1019.0          5/ 7
GREAT SOUTH BAY  NOT AVBL
23 SSW MONTAUK P 1250            44 42              1020.1          4/ 7
15 E BARNEGAT LI 1330               43                N/A           5/ 7
HUDSON CANYON    1250            46 44  150/  8/ 10 1020.4          5/ 7
KINGS POINT      1342            38 39              1019.5
EXECUTION ROCKS  NOT AVBL
CENTRAL LI SOUND 1315            39      90/ 12/ 14   N/A           2/ 4
EASTERN LI SOUND NOT AVBL
ROBBINS REEF     1342            41      10/  5/  5 1019.5
$$


>>>>>>>>>>>>>>>>>>>>>>>>>>>> KEY <<<<<<<<<<<<<<<<<<<<<<<<<<<
>                                                          <
>     SKY/WX - Sky Condition/Present Weather               <
>     TMP    - Temperature in Fahrenheit                   <
>     DP     - Dew Point in Fahrenheit                     <
>     RH     - Relative Humidity in Percent                <
>     WIND   - Direction (from) and Speed in MPH           <
>     PRES   - Mean Sea Level Pressure (inches of Hg)      <
>     WCI    - Wind Chill Index                            <
>     VSB    - VISIBILITY IN MILES                         <
>     HX     - HEAT INDEX                                  <
>     TC     - TEMPERATURE IN CELSIUS                      <
>     VRB    - VARIABLE WIND DIRECTION                     <
>                                                          <
>>>>>>>>>>>>>>>>>>>>>>>>>>>> KEY <<<<<<<<<<<<<<<<<<<<<<<<<<<



USA.gov is the U.S. government's official web portal to all federal, state and local government web resources and services.